This is the latest recevied weather packets stored in our database for station/object W1QED. If no packets are shown the sender has not sent any weather packets the latest 10 day(s).
| Time | Temp. | Humidity | Pressure | Rain* | Wind** | Luminosity | Snow |
|---|---|---|---|---|---|---|---|
| 1777468820 | 9.44° C | 60% | 1017.7 hPa | 0 mm | - | - | - |
| 1777468518 | 8.89° C | 59% | 1017.8 hPa | 0 mm | - | - | - |
| 1777468217 | 8.89° C | 59% | 1017.8 hPa | 0 mm | - | - | - |
| 1777467917 | 8.89° C | 60% | 1017.9 hPa | 0 mm | - | - | - |
| 1777467622 | 8.89° C | 59% | 1017.9 hPa | 0 mm | - | - | - |
| 1777467318 | 8.89° C | 60% | 1018.1 hPa | 0 mm | - | - | - |
| 1777467018 | 8.89° C | 61% | 1018.3 hPa | 0 mm | - | - | - |
| 1777466724 | 8.33° C | 60% | 1018.2 hPa | 0 mm | - | - | - |
| 1777466415 | 8.89° C | 60% | 1018.3 hPa | 0 mm | - | - | - |
| 1777466113 | 8.89° C | 58% | 1018.2 hPa | 0 mm | - | - | - |
| 1777465814 | 8.89° C | 60% | 1018.2 hPa | 0 mm | - | - | - |
| 1777465517 | 9.44° C | 59% | 1018.3 hPa | 0 mm | - | - | - |
| 1777465211 | 9.44° C | 61% | 1018.3 hPa | 0 mm | - | - | - |
| 1777464911 | 8.89° C | 60% | 1018.4 hPa | 0 mm | - | - | - |
| 1777464610 | 8.89° C | 59% | 1018.4 hPa | 0 mm | - | - | - |
| 1777464308 | 9.44° C | 60% | 1018.5 hPa | 0 mm | - | - | - |
| 1777464009 | 8.89° C | 63% | 1018.6 hPa | 0 mm | - | - | - |
| 1777463706 | 7.78° C | 64% | 1018.6 hPa | 0 mm | - | - | - |
| 1777463402 | 7.78° C | 64% | 1018.6 hPa | 0 mm | - | - | - |
| 1777463101 | 7.22° C | 65% | 1018.6 hPa | 0 mm | - | - | - |
| 1777462859 | 7.22° C | 65% | 1018.5 hPa | 0 mm | - | - | - |
| 1777462559 | 7.22° C | 66% | 1018.7 hPa | 0 mm | - | - | - |
| 1777462257 | 6.67° C | 66% | 1018.6 hPa | 0 mm | - | - | - |
| 1777461956 | 6.67° C | 66% | 1018.5 hPa | 0 mm | - | - | - |
| 1777461655 | 6.67° C | 66% | 1018.5 hPa | 0 mm | - | - | - |
* Rain latest hour (hover to see other rain measurements)
** Current wind speed in m/s (hover to see current wind gust speed)